Vorticity
3 5 3 3 5 5 6 5 3 3 5 6 7 7 6 6 5 5 6 5 4 5 5 4 5 5 3 4 5 5 5 5 4 5 5 4 5 5 6 7 9 8 7 6 5 5 5 4 4 5 4 4 4 4 6 7 7 8 9 10 10 9 9 9 6 10 8 6 9 7 9 8 7 9 8 8 8 8 8 8 7 6 6 7 8
3 5 4 4 5 4 6 5 3 5 6 6 6 7 7 6 5 6 5 4 4 4 5 5 4 5 3 4 5 5 5 5 4 5 5 4 5 6 7 7 8 7 6 5 4 5 5 4 4 4 4 4 5 8 9 8 8 8 8 8 9 10 9 9 7 11 8 5 10 8 9 9 7 8 7 8 8 7 7 8 6 7 8 8 8
2 3 4 5 5 5 6 4 3 6 5 6 6 7 7 6 6 6 6 5 4 4 5 6 5 5 3 4 6 5 5 5 5 5 4 4 5 6 7 7 7 6 6 5 4 5 4 5 5 6 6 6 7 10 9 6 5 6 8 6 7 7 6 7 6 10 9 5 10 10 9 8 6 7 7 6 7 6 6 8 8 8 8 7 6
2 3 3 4 5 6 5 5 4 6 6 5 6 6 7 6 5 6 6 5 5 4 5 7 5 4 4 4 5 6 5 5 5 4 4 4 6 7 6 6 6 6 6 5 4 5 5 6 7 6 6 7 8 8 7 5 4 6 8 7 7 6 5 5 5 8 9 6 10 9 6 9 8 7 8 6 8 7 6 10 11 8 6 6 6
2 4 3 4 5 5 4 6 6 5 5 4 5 6 6 6 5 6 6 6 7 6 6 5 6 5 4 5 6 6 4 4 6 4 4 5 6 6 6 6 5 6 5 5 5 5 6 7 7 7 6 7 7 6 5 7 6 4 5 5 6 6 6 6 6 6 7 6 7 6 3 8 9 7 7 6 8 7 7 11 10 7 7 6 7
3 3 3 4 4 5 4 6 6 5 5 5 6 5 6 6 5 6 6 7 7 10 10 3 4 6 5 6 5 5 5 4 6 5 4 4 5 5 5 6 5 5 5 5 5 5 6 7 8 6 7 7 6 8 9 8 6 5 6 7 7 7 8 8 7 6 7 7 6 6 4 6 9 7 6 6 7 6 6 9 8 7 7 6 6
3 2 3 3 4 5 4 5 5 4 6 6 5 6 6 5 5 5 7 8 4 10 15 7 3 6 5 7 5 4 6 4 5 5 4 4 4 6 5 5 6 5 5 6 5 5 6 7 7 5 7 7 7 11 10 7 5 7 8 8 9 8 8 9 8 5 5 8 7 7 6 6 7 7 7 6 7 6 7 8 8 7 6 7 6
4 2 3 3 5 5 4 5 4 4 6 7 6 7 6 6 6 5 7 8 4 5 13 9 5 8 5 4 6 7 6 4 5 5 3 4 5 6 5 5 5 5 6 5 4 5 6 6 5 4 7 7 8 10 7 4 4 7 8 8 9 8 8 10 9 5 4 7 7 7 7 7 7 7 7 6 7 7 8 8 7 6 6 7 7
5 3 3 4 4 4 4 4 4 4 5 6 6 6 6 7 7 5 7 9 5 2 10 10 5 9 5 3 6 8 7 4 5 5 3 4 5 5 5 5 5 5 6 4 4 6 7 6 3 4 7 8 7 6 8 7 6 7 9 10 10 8 9 13 13 8 5 5 6 7 8 7 7 8 7 6 7 7 8 8 6 6 6 6 8
6 5 4 4 4 4 5 3 4 4 4 6 6 6 6 7 5 3 3 9 9 2 5 9 11 10 4 4 7 10 7 5 5 4 3 4 4 5 5 4 5 6 5 4 5 7 8 5 2 5 6 8 5 3 8 10 9 10 12 12 9 7 7 12 17 18 13 7 8 8 8 8 7 9 8 6 7 7 8 8 6 6 5 5 8
6 5 4 5 4 3 4 3 4 4 5 5 5 6 5 6 5 4 0 4 10 8 2 7 18 12 6 4 6 15 6 2 6 4 3 4 5 5 4 3 6 6 4 5 6 7 7 4 3 4 6 7 6 6 9 9 9 9 10 9 7 8 7 7 12 18 18 10 9 10 9 8 7 9 8 7 8 7 7 8 7 6 6 6 7
7 5 6 6 5 4 3 3 4 5 6 5 5 5 6 5 5 8 4 1 6 10 4 5 16 11 14 8 8 20 5 1 6 3 4 4 6 4 4 4 6 6 4 6 6 7 6 5 3 3 7 6 5 9 9 7 6 6 7 8 6 8 9 8 8 11 14 11 9 10 10 9 6 8 9 7 8 7 7 8 7 6 6 7 6
7 5 6 6 5 5 4 3 3 5 7 5 6 5 5 4 4 7 5 4 5 7 4 2 6 10 23 12 12 22 5 5 6 3 6 3 5 3 4 5 5 5 5 5 5 7 5 5 4 4 7 4 6 9 6 4 2 3 5 6 6 7 7 8 10 10 13 11 10 9 6 9 7 6 9 7 9 8 7 8 7 6 5 7 6
7 6 5 4 4 5 6 4 3 5 6 4 4 5 5 5 4 7 5 5 7 8 8 5 -3 -0 19 13 13 20 5 6 6 4 6 3 4 3 4 5 4 4 4 4 5 6 4 6 5 7 7 2 7 8 5 4 2 4 5 6 6 6 6 6 9 13 14 8 12 16 6 6 8 5 8 8 9 8 7 9 8 6 6 7 6
8 6 4 4 3 4 7 6 5 4 5 5 3 3 5 6 5 8 5 4 7 6 8 14 8 -3 5 14 16 16 7 7 6 4 3 3 4 3 5 4 4 5 4 4 5 5 4 6 4 7 6 2 9 8 5 4 3 6 6 8 7 5 6 5 8 15 18 9 11 22 12 5 7 6 7 7 8 8 8 8 8 7 6 7 6
8 6 4 5 3 4 6 7 8 4 5 5 4 4 4 5 6 8 5 4 8 8 6 10 20 11 -0 13 19 12 8 7 5 3 1 3 3 3 5 4 5 4 4 5 6 5 5 5 4 7 5 4 9 7 5 4 5 6 5 9 8 6 6 5 7 13 20 14 7 12 9 5 6 7 7 7 8 7 7 7 6 7 6 7 8
7 6 5 5 4 5 5 5 8 6 4 3 3 5 4 4 5 8 8 6 5 8 10 4 13 19 10 14 16 9 7 6 4 2 0 3 3 4 5 4 5 4 4 5 5 5 4 5 6 5 4 5 6 6 7 6 5 5 5 9 9 8 7 6 8 9 14 15 8 5 5 5 7 7 6 6 8 6 5 6 6 6 7 7 7
7 6 5 5 6 6 4 5 7 8 6 3 6 6 4 5 3 6 9 9 8 7 10 8 7 14 18 16 11 11 9 5 4 -0 0 4 3 4 5 5 5 4 4 5 6 5 3 6 7 3 3 5 4 5 7 6 6 6 7 10 11 10 9 10 11 8 7 10 10 10 9 8 8 7 7 5 5 7 2 3 6 6 7 7 8
7 5 5 6 7 5 4 6 6 7 6 4 10 9 5 7 3 5 9 9 10 10 9 10 11 12 13 12 11 12 8 5 4 -1 1 4 3 4 5 5 5 4 5 6 6 5 3 7 7 2 3 5 3 3 5 7 7 8 9 12 12 14 20 17 14 12 6 6 8 12 13 9 9 7 8 7 3 8 5 1 6 6 6 6 7
7 5 6 7 7 5 3 6 5 6 6 6 9 9 7 7 5 6 10 6 5 8 7 9 14 11 7 12 17 13 6 5 3 0 3 4 3 5 5 6 5 5 6 5 7 6 3 7 7 4 3 3 4 1 4 10 5 4 9 12 11 12 23 20 11 11 8 6 5 11 15 8 10 7 6 10 5 6 7 3 5 6 6 6 7
7 7 7 6 6 6 5 5 5 6 7 8 9 8 6 7 9 8 10 11 7 6 8 11 11 6 11 22 21 12 6 4 3 3 5 4 4 4 4 5 5 5 5 5 8 5 2 5 5 4 3 2 4 0 3 10 4 5 8 11 11 5 14 20 12 10 8 8 5 8 16 10 8 9 7 9 6 5 6 5 5 5 5 5 6
8 8 6 7 7 5 5 5 6 7 7 8 8 5 5 8 10 9 8 11 11 9 11 11 10 14 24 25 17 11 7 5 5 5 5 5 6 5 4 4 5 5 5 7 8 4 4 7 6 5 4 3 4 2 5 9 8 10 9 7 11 9 14 21 17 16 11 8 7 6 13 13 7 9 9 6 4 4 6 5 5 5 6 5 5
9 8 6 7 8 5 5 6 6 6 8 9 7 6 7 6 7 9 10 13 14 14 14 10 14 23 24 16 12 11 7 5 5 4 5 5 6 6 6 5 5 5 6 7 5 6 7 3 5 9 5 4 4 4 8 11 12 11 6 2 9 18 18 13 10 17 16 9 9 6 8 13 9 8 9 9 6 5 6 6 6 4 4 4 5
9 8 6 7 6 5 5 5 6 7 10 8 6 10 11 5 5 11 15 18 16 15 17 12 13 16 13 10 10 8 5 5 4 4 5 6 7 6 5 5 4 6 6 5 4 5 5 -2 1 9 6 5 4 4 8 11 10 7 4 2 8 18 12 6 6 14 19 13 10 8 5 8 10 8 7 8 8 7 6 5 7 5 3 4 4
8 8 6 7 6 6 5 5 5 7 9 6 6 12 12 5 7 14 12 14 17 15 16 11 8 10 10 9 7 5 5 4 4 5 6 6 6 5 5 5 3 6 5 4 5 3 4 4 4 8 7 5 3 3 7 8 6 5 5 3 9 14 4 3 7 9 21 21 11 9 7 6 10 10 8 8 6 7 7 4 7 6 4 6 4
9 8 6 7 7 6 5 6 6 7 7 5 9 11 9 6 11 18 11 9 15 13 11 9 7 10 8 7 6 4 3 3 4 5 6 6 5 5 5 3 3 5 5 5 7 4 4 6 5 7 6 3 4 4 4 5 5 5 4 3 10 13 4 4 8 6 19 28 16 9 11 8 9 10 9 10 6 7 7 5 6 5 4 6 6
9 7 7 7 6 6 6 6 7 7 7 7 9 9 8 8 11 17 12 10 13 10 9 9 9 8 6 5 5 4 3 3 5 5 5 5 5 5 4 3 4 5 7 6 6 6 5 5 5 6 6 3 4 5 2 3 7 5 2 6 11 10 6 5 9 8 15 29 21 12 16 10 6 10 10 10 8 7 8 7 6 6 5 5 6
9 7 8 7 5 6 6 8 8 8 8 7 9 8 8 10 11 11 10 10 10 10 10 10 9 6 5 5 5 4 4 3 4 5 4 5 5 4 4 4 5 6 8 7 5 5 4 6 6 6 7 4 5 7 3 3 6 5 3 9 9 8 9 5 10 12 11 24 24 15 19 15 8 9 11 13 11 8 8 9 8 5 6 6 7
9 9 8 6 5 6 7 8 8 8 10 8 9 10 7 8 10 10 10 10 9 9 9 9 8 5 4 5 6 5 4 4 4 5 5 5 5 5 5 4 6 7 7 7 6 5 6 7 6 5 8 7 8 7 4 5 4 4 7 9 6 6 10 9 13 15 12 21 25 17 15 16 11 7 9 13 11 8 7 10 9 6 6 7 6
9 8 6 4 5 8 8 8 8 9 9 9 11 8 5 8 9 9 10 9 9 8 8 8 6 4 4 3 5 5 3 4 4 4 5 6 5 6 6 5 6 6 6 7 6 7 8 8 5 6 9 9 8 6 5 7 4 5 11 9 5 5 11 15 13 14 15 22 26 19 10 11 11 9 8 10 9 7 7 7 7 7 7 8 6
8 6 3 3 6 8 9 8 8 10 8 8 12 4 2 9 8 8 10 9 9 8 8 8 6 4 3 3 4 4 3 3 3 4 5 5 6 6 5 6 6 5 5 5 6 8 8 7 6 7 10 9 6 5 5 5 4 8 12 8 5 6 12 19 14 11 16 21 24 17 7 6 13 18 12 9 12 9 8 7 6 7 6 7 6
6 5 4 5 7 7 9 10 8 10 8 8 12 3 1 9 8 9 9 8 9 8 8 9 7 5 3 4 4 3 4 4 4 5 5 5 5 5 6 6 5 5 5 5 5 7 8 6 6 8 10 7 5 5 3 3 7 11 11 6 5 5 12 21 15 11 15 18 23 20 12 7 10 19 15 10 13 10 9 8 6 7 5 5 6
6 7 8 8 8 6 9 10 8 10 8 8 12 4 1 8 8 9 9 7 9 8 8 7 7 6 5 5 4 5 5 4 4 5 6 5 3 4 5 6 6 6 5 5 5 7 8 6 7 9 9 8 7 4 3 6 10 11 8 5 5 4 10 18 12 10 15 18 23 23 19 13 7 11 14 13 13 11 11 8 5 7 7 7 8
7 8 11 10 9 8 8 10 9 10 8 7 11 5 2 7 7 9 9 6 8 8 7 6 6 7 5 5 5 5 5 4 4 5 5 4 3 3 4 6 6 6 5 4 5 8 9 7 7 9 8 9 7 4 5 8 8 9 6 4 6 4 7 16 11 8 14 19 22 21 20 19 11 7 10 13 14 12 13 11 8 7 8 9 9
6 7 10 10 9 9 8 11 10 9 7 7 9 5 2 7 7 9 10 6 6 7 7 6 6 7 6 5 4 5 5 4 5 6 5 4 4 3 3 6 5 5 6 4 5 8 9 8 8 7 7 8 6 5 8 8 6 8 6 4 7 5 5 15 15 10 12 16 19 20 21 20 16 12 13 13 12 11 12 13 11 8 8 9 9
6 6 7 8 10 10 8 10 11 10 9 8 9 6 4 6 6 8 9 6 4 5 7 6 5 6 6 5 3 2 4 4 5 7 6 5 4 4 3 4 5 6 5 4 5 7 7 8 9 8 7 7 6 6 8 10 8 8 6 4 7 6 5 11 15 11 11 13 15 18 20 19 16 15 14 12 10 10 11 12 12 10 10 10 11
5 6 7 7 8 10 8 8 11 12 10 8 7 7 6 5 6 8 8 7 6 4 6 7 5 5 5 6 3 0 2 2 3 6 7 7 5 4 4 4 5 6 5 4 4 5 6 7 8 8 8 7 7 5 7 12 11 8 7 5 6 7 5 8 11 11 12 11 12 14 15 16 16 15 15 14 12 9 8 9 10 9 7 7 9
4 6 7 7 7 8 7 7 12 13 10 9 7 8 8 6 5 7 8 8 7 6 6 7 7 6 4 7 5 2 3 2 3 5 5 6 5 4 5 5 5 6 5 4 4 4 4 5 7 8 9 8 7 4 5 11 10 8 8 5 5 7 6 7 8 10 12 13 12 10 10 11 12 12 12 11 9 6 6 7 7 9 8 6 7
3 5 8 8 7 8 6 5 9 12 12 10 8 9 8 6 5 5 6 7 7 6 7 7 8 7 5 6 7 5 5 4 3 4 4 5 5 5 6 4 5 6 5 3 3 3 2 4 6 7 9 8 8 6 5 9 10 8 8 5 4 6 7 6 7 8 10 12 13 11 10 10 9 8 8 6 6 6 6 6 7 9 10 10 9
5 6 10 10 7 8 6 5 6 10 13 11 8 8 7 5 4 3 3 4 5 5 6 6 7 8 7 6 6 6 5 4 4 4 5 6 5 5 6 4 5 5 4 3 3 2 1 2 5 7 8 7 8 7 5 8 9 9 9 6 4 6 6 5 6 8 9 10 11 11 11 11 10 11 11 10 11 13 13 11 10 13 11 10 9
7 7 11 8 5 7 7 5 6 8 12 12 8 7 7 5 4 4 3 3 4 5 4 4 6 8 9 9 6 6 6 4 5 4 4 6 5 5 5 4 5 4 3 2 3 3 1 -0 3 6 7 6 7 7 6 7 8 9 10 7 5 6 6 5 5 6 8 9 10 11 12 12 11 12 14 14 14 15 17 16 14 14 12 10 9
5 5 10 8 3 6 8 7 6 7 9 11 8 8 9 6 4 6 5 4 4 4 4 3 5 8 9 11 9 6 6 5 4 4 4 5 4 4 4 5 5 3 3 3 4 4 1 -1 0 4 6 6 7 6 5 7 8 9 10 8 6 6 7 7 5 5 7 8 9 10 12 13 12 12 14 15 14 13 13 13 13 12 11 10 10
7 6 10 8 4 5 7 7 7 6 8 11 9 8 13 10 6 7 6 4 5 5 6 6 5 6 7 11 10 8 7 6 5 4 3 4 4 4 5 5 5 4 4 4 4 5 3 1 -0 3 6 7 7 6 6 8 7 7 11 9 6 6 7 9 8 5 6 8 9 10 11 12 12 12 12 13 14 13 11 11 13 12 10 9 9
10 9 11 7 6 7 7 6 6 6 7 10 10 8 13 14 8 7 6 5 7 5 6 6 4 5 5 7 9 8 8 6 6 4 3 4 4 5 6 5 5 5 6 6 5 5 4 2 1 3 6 7 7 7 7 8 5 5 11 10 7 5 6 10 10 6 6 7 7 7 8 9 10 12 12 12 12 12 12 10 9 9 9 9 9
11 10 10 8 7 7 6 6 5 7 7 7 10 9 10 13 8 7 7 5 5 5 4 4 4 5 5 6 7 8 8 7 5 4 4 4 5 5 6 5 5 6 7 8 8 8 7 5 4 5 6 8 8 7 6 6 5 5 8 9 8 6 7 9 9 7 7 7 7 6 6 7 8 10 11 12 11 11 11 10 8 7 7 8 9
17 17 12 8 8 6 5 7 5 6 8 7 9 9 9 11 8 6 7 5 5 6 5 5 5 5 5 7 9 7 7 7 6 5 5 4 5 5 6 5 5 6 7 8 8 9 9 7 8 7 6 8 8 8 6 5 6 5 6 9 9 7 6 7 8 7 7 8 8 6 6 7 7 8 10 11 12 11 11 10 10 9 9 9 9
17 22 17 8 6 6 4 5 6 6 8 8 8 8 8 9 9 7 6 6 7 9 10 9 6 6 6 6 7 6 6 5 5 5 5 5 5 5 6 6 5 5 5 6 6 7 7 8 9 8 6 7 8 8 6 5 6 6 5 8 8 7 5 5 6 7 6 7 8 7 5 7 8 7 7 8 10 11 11 11 10 9 9 9 9
22 25 20 12 3 4 7 5 5 6 7 8 8 7 7 8 9 9 8 7 8 9 10 10 8 6 5 5 5 5 5 5 4 5 6 6 6 6 6 6 6 6 5 5 5 6 6 7 7 7 6 7 7 7 7 5 5 6 6 7 7 7 5 4 5 6 6 5 6 7 6 6 8 7 6 6 6 8 9 10 10 10 10 10 11
35 23 6 9 6 3 8 6 4 6 6 7 7 7 7 9 10 10 9 7 8 9 8 9 10 7 5 5 6 6 7 7 7 7 7 7 8 8 7 7 6 6 6 6 6 6 7 7 7 7 7 7 6 6 7 6 6 5 6 7 7 5 3 4 6 6 7 6 5 6 5 6 7 7 7 6 6 6 6 7 7 7 8 8 8
32 17 -6 -0 7 5 6 7 5 4 5 6 7 8 8 9 10 9 9 8 7 8 7 8 11 10 9 9 9 10 10 10 9 8 7 7 8 8 8 8 7 7 7 6 7 7 7 9 9 8 8 7 6 5 6 7 7 6 6 7 6 5 5 6 6 6 7 8 8 7 5 5 5 6 7 7 7 7 7 7 7 6 6 6 6
24 23 5 -1 6 6 5 9 8 3 4 6 5 6 7 8 8 8 9 8 8 7 7 9 12 12 11 11 11 12 12 10 9 8 7 7 7 8 8 8 8 8 8 7 8 7 7 8 9 9 8 8 7 7 6 7 7 7 7 7 6 6 7 6 4 3 3 5 7 8 7 6 5 5 6 7 7 6 6 7 7 8 7 6 6
Height
5908 5908 5908 5909 5909 5910 5911 5912 5913 5914 5914 5915 5915 5915 5915 5915 5915 5915 5916 5916 5916 5916 5917 5917 5917 5918 5918 5918 5919 5919 5919 5920 5920 5921 5921 5922 5922 5923 5924 5924 5924 5924 5923 5923 5923 5923 5923 5922 5920 5919 5919 5919 5919 5919 5919 5919 5919 5919 5919 5919 5918 5918 5918 5917 5916 5916 5917 5917 5916 5915 5915 5915 5915 5915 5915 5916 5916 5916 5917 5917 5917 5918 5918 5918 5917
5908 5909 5909 5910 5910 5911 5912 5912 5913 5914 5914 5915 5915 5915 5915 5915 5915 5915 5916 5916 5916 5916 5917 5917 5917 5918 5918 5919 5919 5919 5919 5920 5920 5920 5921 5921 5921 5922 5923 5923 5923 5923 5923 5923 5923 5923 5923 5922 5921 5920 5919 5919 5920 5920 5921 5920 5920 5919 5919 5919 5918 5918 5917 5917 5916 5916 5917 5917 5916 5915 5915 5915 5915 5915 5915 5916 5916 5916 5917 5917 5918 5919 5919 5918 5917
5909 5909 5910 5910 5911 5912 5912 5913 5913 5914 5914 5915 5915 5916 5916 5916 5916 5916 5916 5916 5916 5916 5917 5917 5917 5918 5918 5919 5919 5919 5919 5919 5920 5920 5920 5921 5921 5921 5922 5922 5922 5922 5922 5922 5922 5923 5923 5922 5921 5920 5920 5920 5921 5921 5921 5920 5919 5918 5918 5918 5918 5917 5917 5917 5916 5915 5916 5917 5916 5914 5914 5915 5915 5914 5915 5916 5916 5916 5917 5917 5918 5919 5918 5917 5917
5909 5910 5910 5911 5911 5912 5913 5913 5914 5914 5915 5915 5916 5916 5916 5916 5916 5916 5916 5916 5916 5917 5917 5917 5917 5918 5918 5918 5919 5919 5919 5919 5920 5920 5920 5920 5921 5921 5921 5921 5921 5921 5922 5922 5922 5922 5922 5922 5921 5920 5920 5921 5922 5921 5920 5919 5918 5918 5918 5918 5917 5917 5917 5917 5916 5915 5916 5916 5916 5915 5914 5914 5915 5915 5915 5915 5916 5917 5917 5918 5919 5919 5918 5917 5918
5909 5910 5910 5911 5911 5912 5913 5913 5914 5915 5915 5915 5916 5916 5917 5916 5916 5916 5916 5916 5916 5917 5917 5917 5917 5918 5918 5918 5919 5919 5919 5919 5920 5920 5920 5920 5921 5920 5921 5921 5921 5921 5922 5922 5922 5922 5922 5922 5921 5920 5921 5922 5921 5920 5920 5919 5918 5918 5918 5918 5917 5916 5917 5917 5916 5915 5915 5915 5916 5915 5914 5914 5915 5915 5915 5915 5916 5916 5917 5918 5919 5918 5917 5917 5918
5909 5909 5910 5911 5911 5912 5913 5913 5914 5915 5915 5915 5916 5916 5917 5917 5917 5916 5916 5916 5916 5916 5917 5917 5917 5918 5918 5918 5919 5919 5920 5920 5920 5920 5920 5921 5921 5920 5921 5921 5921 5921 5922 5923 5922 5922 5922 5922 5921 5920 5921 5921 5920 5919 5919 5918 5917 5917 5917 5917 5917 5916 5916 5916 5916 5915 5914 5914 5915 5915 5915 5915 5915 5915 5915 5915 5915 5916 5916 5917 5917 5917 5917 5917 5918
5909 5909 5910 5910 5911 5912 5912 5913 5914 5914 5915 5915 5916 5916 5916 5916 5916 5916 5916 5916 5916 5917 5917 5917 5917 5918 5918 5918 5919 5919 5920 5920 5920 5920 5920 5921 5921 5920 5921 5921 5921 5922 5923 5923 5923 5922 5922 5922 5921 5920 5921 5921 5920 5919 5918 5917 5917 5917 5916 5917 5916 5915 5915 5915 5915 5914 5914 5914 5914 5914 5915 5915 5915 5915 5915 5915 5915 5916 5916 5916 5916 5917 5917 5918 5918
5909 5909 5910 5910 5910 5911 5912 5913 5913 5914 5915 5915 5915 5916 5916 5916 5916 5916 5916 5916 5916 5916 5917 5917 5917 5917 5918 5919 5919 5920 5920 5920 5921 5920 5920 5921 5921 5921 5921 5921 5922 5922 5923 5924 5923 5923 5922 5922 5921 5920 5921 5921 5920 5920 5918 5918 5917 5917 5916 5916 5915 5914 5914 5914 5914 5913 5913 5913 5913 5913 5913 5914 5914 5914 5914 5915 5916 5916 5917 5917 5917 5917 5918 5918 5919
5909 5909 5909 5910 5910 5911 5912 5912 5913 5914 5914 5915 5915 5915 5916 5916 5916 5916 5916 5915 5916 5916 5917 5917 5917 5917 5918 5918 5919 5919 5920 5920 5921 5920 5920 5921 5921 5920 5921 5921 5922 5923 5923 5924 5923 5923 5923 5922 5921 5920 5921 5921 5921 5920 5919 5918 5917 5916 5916 5915 5914 5913 5913 5913 5913 5913 5913 5912 5912 5912 5912 5912 5913 5913 5914 5915 5916 5916 5917 5917 5917 5918 5918 5918 5919
5909 5909 5909 5910 5911 5911 5912 5912 5913 5913 5914 5914 5914 5915 5915 5916 5916 5916 5915 5915 5915 5915 5916 5917 5917 5917 5917 5918 5919 5919 5919 5920 5920 5920 5920 5920 5920 5920 5920 5921 5922 5923 5923 5923 5924 5923 5923 5922 5922 5921 5920 5921 5921 5919 5918 5917 5916 5915 5915 5914 5913 5912 5912 5911 5912 5912 5912 5911 5911 5911 5912 5912 5912 5913 5914 5915 5915 5916 5916 5917 5917 5918 5918 5918 5919
5909 5909 5910 5910 5911 5911 5912 5912 5913 5913 5913 5913 5914 5914 5915 5915 5916 5915 5915 5915 5915 5915 5915 5916 5917 5916 5917 5917 5918 5918 5919 5919 5919 5919 5920 5920 5920 5920 5920 5921 5922 5923 5923 5923 5923 5923 5923 5923 5922 5921 5920 5920 5920 5919 5917 5916 5915 5914 5914 5914 5913 5912 5912 5911 5911 5911 5911 5910 5911 5911 5912 5912 5912 5913 5914 5914 5915 5916 5916 5916 5917 5917 5918 5918 5919
5909 5909 5910 5910 5911 5911 5912 5912 5912 5913 5913 5913 5913 5913 5914 5914 5915 5915 5915 5914 5914 5915 5915 5916 5917 5916 5917 5917 5917 5918 5918 5918 5919 5919 5919 5920 5920 5920 5920 5921 5922 5922 5923 5923 5923 5923 5923 5923 5922 5922 5921 5919 5919 5918 5916 5915 5914 5914 5914 5913 5912 5912 5911 5911 5911 5911 5911 5910 5910 5911 5912 5912 5912 5913 5913 5914 5915 5915 5916 5916 5916 5917 5918 5918 5919
5909 5910 5910 5910 5911 5912 5912 5913 5912 5912 5913 5913 5913 5913 5913 5913 5914 5914 5914 5914 5914 5914 5915 5916 5917 5916 5916 5917 5917 5918 5918 5918 5919 5919 5919 5919 5919 5920 5920 5921 5922 5922 5922 5923 5922 5922 5923 5923 5922 5922 5921 5919 5918 5917 5915 5915 5914 5914 5914 5913 5912 5912 5911 5911 5910 5910 5910 5910 5910 5911 5911 5912 5913 5913 5913 5914 5914 5915 5916 5916 5916 5917 5917 5918 5919
5909 5909 5910 5910 5911 5912 5912 5913 5912 5912 5912 5912 5912 5912 5912 5912 5913 5913 5913 5913 5913 5913 5914 5915 5916 5916 5916 5917 5917 5918 5918 5919 5919 5918 5918 5919 5919 5919 5921 5922 5922 5922 5922 5922 5922 5922 5922 5923 5922 5922 5921 5920 5918 5916 5915 5915 5915 5915 5914 5914 5913 5913 5912 5911 5910 5910 5910 5910 5910 5910 5911 5912 5912 5913 5913 5914 5914 5915 5916 5917 5917 5917 5917 5918 5919
5908 5909 5909 5909 5911 5911 5911 5912 5912 5911 5912 5912 5912 5912 5912 5911 5911 5912 5912 5912 5912 5913 5913 5914 5915 5916 5916 5917 5917 5918 5918 5919 5919 5918 5918 5918 5919 5919 5921 5922 5922 5922 5922 5922 5922 5922 5922 5922 5922 5922 5921 5920 5918 5917 5916 5916 5916 5915 5914 5914 5913 5913 5912 5911 5910 5909 5909 5910 5910 5910 5911 5912 5912 5912 5913 5914 5915 5915 5916 5917 5917 5917 5917 5918 5919
5908 5909 5909 5909 5910 5911 5911 5911 5912 5912 5913 5912 5911 5911 5911 5911 5911 5911 5911 5911 5912 5912 5912 5913 5914 5915 5916 5917 5917 5918 5918 5919 5919 5919 5918 5918 5919 5920 5921 5922 5922 5922 5922 5922 5922 5922 5922 5922 5921 5921 5920 5919 5918 5917 5917 5917 5916 5915 5914 5913 5913 5913 5912 5911 5910 5909 5909 5910 5910 5910 5911 5911 5912 5912 5913 5914 5914 5915 5916 5917 5918 5918 5918 5918 5919
5908 5908 5908 5908 5910 5912 5911 5911 5912 5912 5912 5912 5911 5911 5911 5911 5910 5910 5910 5911 5912 5912 5912 5913 5914 5914 5915 5916 5916 5917 5918 5919 5919 5919 5918 5918 5919 5920 5921 5922 5922 5922 5922 5922 5922 5922 5922 5922 5921 5920 5920 5919 5918 5918 5917 5917 5916 5915 5914 5913 5913 5912 5911 5911 5910 5909 5909 5910 5910 5911 5911 5911 5912 5913 5913 5913 5914 5915 5915 5916 5918 5919 5919 5919 5919
5908 5908 5908 5908 5909 5911 5911 5911 5912 5911 5911 5911 5910 5910 5910 5910 5910 5910 5910 5910 5911 5911 5912 5912 5913 5914 5914 5915 5915 5916 5918 5919 5919 5919 5919 5918 5919 5920 5921 5922 5922 5922 5922 5922 5922 5922 5922 5922 5921 5920 5919 5918 5918 5918 5917 5917 5916 5915 5913 5912 5912 5911 5910 5911 5910 5909 5909 5909 5910 5910 5911 5911 5912 5913 5914 5914 5915 5916 5916 5916 5918 5919 5919 5919 5919
5908 5908 5908 5908 5908 5911 5911 5911 5911 5910 5910 5910 5910 5910 5910 5910 5910 5910 5910 5910 5911 5911 5912 5912 5913 5914 5914 5915 5915 5916 5918 5918 5918 5919 5919 5919 5919 5920 5921 5921 5922 5922 5923 5923 5922 5922 5922 5922 5921 5921 5920 5919 5918 5917 5917 5917 5916 5915 5913 5912 5912 5910 5909 5909 5909 5909 5908 5908 5909 5910 5910 5911 5911 5912 5914 5915 5916 5917 5917 5917 5918 5918 5919 5919 5919
5907 5908 5907 5907 5908 5909 5911 5910 5909 5909 5909 5909 5909 5909 5910 5909 5909 5909 5910 5911 5911 5911 5911 5912 5913 5913 5914 5914 5915 5916 5917 5918 5918 5919 5920 5919 5920 5920 5921 5921 5922 5923 5923 5923 5923 5923 5923 5922 5922 5921 5920 5919 5918 5918 5917 5916 5915 5914 5913 5911 5911 5910 5908 5908 5908 5909 5908 5908 5908 5909 5909 5910 5911 5913 5914 5915 5916 5917 5917 5917 5918 5918 5919 5919 5919
5907 5907 5907 5907 5907 5908 5909 5909 5909 5909 5909 5909 5909 5908 5909 5908 5908 5908 5909 5910 5910 5911 5911 5911 5912 5912 5913 5914 5915 5916 5917 5918 5919 5919 5920 5920 5920 5920 5921 5921 5922 5923 5923 5923 5923 5924 5923 5923 5923 5922 5920 5920 5919 5919 5917 5916 5915 5913 5912 5910 5909 5909 5908 5907 5907 5908 5908 5908 5908 5908 5909 5910 5912 5913 5913 5914 5914 5915 5916 5917 5918 5919 5920 5920 5920
5907 5907 5907 5907 5907 5907 5908 5909 5908 5908 5909 5909 5908 5908 5908 5908 5908 5908 5908 5909 5909 5910 5910 5911 5911 5911 5912 5914 5915 5916 5917 5918 5919 5920 5920 5920 5920 5920 5921 5921 5922 5923 5924 5924 5924 5924 5924 5924 5923 5922 5921 5920 5920 5920 5918 5917 5915 5914 5912 5910 5908 5908 5908 5907 5907 5908 5908 5908 5908 5908 5908 5909 5911 5912 5912 5914 5914 5914 5915 5916 5917 5918 5920 5922 5921
5906 5907 5907 5907 5907 5907 5907 5908 5908 5908 5909 5909 5908 5908 5908 5907 5908 5908 5908 5908 5909 5909 5910 5911 5911 5912 5912 5914 5915 5916 5918 5919 5919 5920 5920 5920 5920 5921 5921 5921 5922 5923 5924 5924 5924 5925 5925 5924 5924 5923 5922 5921 5921 5920 5919 5918 5916 5915 5913 5912 5910 5908 5907 5908 5908 5908 5908 5908 5908 5908 5908 5908 5910 5911 5912 5913 5914 5915 5915 5916 5917 5917 5918 5921 5922
5906 5907 5907 5907 5907 5907 5907 5907 5907 5907 5908 5908 5909 5909 5908 5907 5908 5909 5908 5908 5908 5909 5910 5911 5911 5912 5913 5914 5916 5917 5918 5919 5920 5920 5920 5920 5920 5921 5921 5921 5922 5923 5924 5924 5925 5925 5925 5924 5924 5923 5922 5922 5921 5920 5919 5918 5917 5916 5915 5913 5912 5910 5908 5908 5908 5908 5908 5907 5908 5909 5908 5907 5909 5910 5911 5913 5915 5915 5916 5916 5917 5917 5917 5919 5922
5906 5906 5907 5907 5907 5907 5907 5907 5907 5907 5907 5908 5908 5908 5908 5908 5909 5909 5909 5908 5908 5909 5910 5911 5912 5913 5914 5915 5916 5917 5918 5919 5920 5920 5920 5920 5921 5921 5921 5922 5922 5923 5924 5925 5925 5926 5925 5925 5924 5924 5923 5922 5921 5920 5919 5919 5918 5916 5915 5914 5913 5911 5909 5908 5908 5907 5907 5906 5906 5908 5908 5907 5907 5909 5910 5912 5914 5915 5916 5917 5917 5917 5916 5917 5920
5905 5906 5906 5907 5907 5907 5907 5907 5907 5907 5907 5907 5908 5908 5908 5909 5909 5908 5908 5908 5908 5909 5910 5911 5912 5914 5915 5916 5917 5917 5918 5919 5920 5920 5920 5921 5921 5921 5922 5922 5923 5924 5924 5925 5926 5926 5926 5926 5925 5924 5924 5923 5922 5921 5919 5919 5918 5916 5915 5914 5912 5911 5910 5908 5907 5907 5906 5905 5905 5906 5907 5906 5906 5907 5909 5910 5912 5915 5916 5917 5917 5917 5917 5917 5919
5905 5905 5906 5906 5907 5907 5907 5907 5907 5907 5907 5907 5907 5907 5907 5907 5907 5907 5907 5908 5908 5909 5911 5912 5913 5914 5915 5916 5917 5918 5918 5919 5920 5921 5921 5921 5921 5922 5922 5923 5923 5924 5925 5925 5926 5926 5926 5926 5926 5925 5924 5923 5922 5921 5920 5919 5918 5917 5915 5914 5912 5910 5909 5908 5906 5905 5904 5904 5904 5905 5906 5906 5906 5906 5908 5909 5911 5913 5915 5916 5917 5917 5918 5918 5919
5905 5905 5906 5906 5907 5907 5907 5907 5907 5907 5907 5907 5906 5906 5906 5906 5907 5907 5908 5908 5909 5910 5911 5912 5913 5914 5916 5917 5918 5918 5919 5919 5920 5921 5921 5921 5922 5922 5923 5923 5924 5925 5925 5926 5926 5926 5926 5926 5926 5926 5924 5923 5923 5922 5921 5920 5919 5917 5916 5914 5913 5910 5909 5907 5906 5904 5903 5903 5903 5904 5904 5905 5905 5906 5907 5909 5910 5912 5914 5915 5916 5917 5918 5918 5919
5905 5905 5906 5906 5907 5907 5907 5907 5907 5907 5907 5907 5906 5906 5907 5907 5907 5908 5909 5909 5910 5911 5912 5913 5914 5915 5916 5917 5918 5919 5919 5920 5920 5921 5922 5922 5922 5922 5923 5924 5924 5925 5926 5926 5926 5926 5926 5926 5927 5926 5925 5924 5923 5923 5922 5921 5920 5918 5916 5915 5913 5911 5908 5907 5905 5904 5903 5902 5902 5903 5904 5905 5905 5906 5907 5909 5910 5911 5913 5915 5916 5917 5918 5919 5919
5904 5905 5905 5906 5906 5907 5907 5906 5906 5906 5906 5907 5906 5907 5907 5907 5908 5908 5909 5909 5910 5911 5912 5913 5914 5915 5916 5917 5918 5919 5919 5920 5921 5922 5922 5922 5922 5923 5923 5924 5925 5925 5926 5926 5926 5926 5926 5926 5927 5927 5926 5925 5924 5923 5922 5922 5920 5919 5917 5915 5913 5911 5909 5907 5905 5904 5903 5902 5902 5902 5904 5905 5906 5907 5907 5908 5909 5910 5912 5914 5915 5916 5917 5918 5918
5904 5905 5905 5906 5906 5906 5906 5906 5906 5906 5907 5907 5907 5907 5908 5908 5908 5909 5909 5910 5910 5911 5913 5914 5915 5916 5917 5918 5918 5919 5919 5920 5921 5922 5922 5923 5923 5923 5924 5925 5925 5925 5926 5926 5926 5926 5926 5926 5927 5927 5926 5925 5924 5923 5923 5922 5921 5920 5918 5916 5914 5911 5909 5907 5905 5904 5903 5902 5902 5902 5903 5904 5906 5906 5906 5908 5909 5909 5912 5914 5915 5916 5916 5917 5918
5904 5904 5905 5905 5906 5906 5906 5906 5906 5907 5907 5907 5907 5907 5908 5908 5909 5909 5909 5910 5911 5912 5913 5914 5915 5916 5917 5918 5918 5919 5920 5920 5921 5922 5923 5923 5923 5924 5924 5925 5925 5925 5925 5926 5926 5927 5926 5927 5927 5927 5926 5926 5925 5924 5923 5922 5921 5921 5919 5917 5915 5912 5910 5907 5906 5905 5904 5903 5902 5902 5903 5904 5905 5905 5906 5908 5909 5911 5912 5914 5914 5915 5916 5916 5917
5904 5904 5904 5905 5906 5906 5906 5907 5907 5907 5907 5907 5908 5908 5908 5909 5909 5910 5910 5910 5911 5912 5913 5914 5915 5916 5917 5918 5918 5919 5920 5921 5921 5922 5923 5923 5923 5924 5924 5925 5925 5925 5926 5926 5927 5927 5927 5927 5926 5926 5926 5926 5926 5925 5924 5923 5922 5922 5920 5918 5916 5913 5911 5908 5907 5906 5905 5904 5903 5903 5904 5904 5905 5905 5906 5908 5910 5911 5912 5914 5914 5915 5916 5916 5917
5902 5903 5904 5905 5905 5906 5906 5907 5907 5907 5907 5907 5908 5908 5908 5909 5910 5910 5910 5911 5911 5912 5913 5914 5915 5916 5917 5917 5918 5919 5920 5921 5921 5922 5923 5923 5924 5924 5925 5925 5925 5926 5926 5926 5927 5927 5927 5927 5926 5926 5926 5926 5926 5926 5925 5924 5923 5922 5921 5919 5917 5915 5913 5910 5909 5908 5907 5905 5904 5904 5904 5904 5905 5906 5906 5908 5910 5911 5912 5913 5913 5914 5915 5916 5916
5901 5902 5903 5904 5904 5905 5906 5906 5907 5907 5907 5907 5907 5908 5908 5909 5910 5910 5910 5911 5911 5912 5913 5914 5915 5916 5917 5917 5918 5919 5920 5920 5921 5922 5923 5923 5924 5924 5925 5925 5926 5926 5926 5927 5927 5927 5927 5926 5926 5925 5926 5926 5927 5927 5926 5925 5923 5923 5922 5920 5918 5916 5914 5913 5912 5910 5909 5907 5906 5905 5905 5905 5906 5907 5907 5908 5909 5910 5911 5912 5912 5913 5914 5915 5916
5900 5900 5901 5902 5903 5904 5905 5906 5906 5907 5907 5907 5907 5907 5908 5909 5909 5910 5910 5911 5911 5912 5913 5914 5915 5916 5917 5917 5918 5919 5920 5920 5921 5922 5923 5923 5924 5924 5925 5925 5926 5926 5926 5927 5927 5927 5927 5926 5926 5925 5926 5926 5927 5927 5926 5925 5924 5923 5922 5921 5919 5917 5916 5915 5914 5912 5911 5909 5908 5907 5906 5906 5907 5907 5908 5909 5909 5910 5911 5911 5912 5913 5914 5915 5916
5899 5899 5900 5900 5901 5902 5903 5905 5906 5906 5907 5907 5907 5907 5908 5908 5909 5910 5910 5911 5911 5912 5913 5914 5915 5916 5916 5917 5918 5919 5920 5920 5921 5922 5923 5924 5924 5924 5925 5925 5926 5926 5926 5926 5927 5927 5926 5926 5925 5925 5926 5926 5927 5927 5927 5926 5925 5923 5922 5921 5919 5918 5917 5917 5916 5914 5913 5911 5910 5908 5907 5907 5907 5908 5909 5910 5910 5910 5911 5912 5913 5915 5916 5916 5916
5898 5899 5899 5900 5900 5901 5902 5903 5905 5906 5906 5907 5908 5908 5908 5908 5909 5910 5910 5911 5912 5912 5913 5914 5915 5915 5916 5917 5918 5918 5919 5920 5921 5922 5923 5924 5924 5924 5925 5925 5926 5926 5926 5926 5926 5926 5926 5926 5925 5925 5926 5926 5926 5926 5927 5926 5926 5924 5923 5921 5919 5919 5918 5918 5917 5916 5914 5913 5911 5910 5909 5909 5909 5909 5911 5911 5912 5912 5912 5912 5913 5914 5915 5916 5916
5897 5897 5898 5899 5899 5900 5901 5902 5903 5905 5906 5907 5908 5908 5908 5908 5909 5909 5910 5910 5911 5912 5912 5913 5914 5915 5916 5916 5917 5918 5919 5920 5921 5922 5923 5923 5923 5924 5924 5925 5925 5926 5926 5926 5926 5926 5926 5926 5925 5925 5926 5925 5925 5925 5926 5926 5926 5925 5923 5922 5920 5920 5920 5919 5919 5917 5916 5914 5913 5911 5911 5911 5910 5911 5912 5912 5913 5913 5913 5913 5914 5914 5915 5915 5916
5896 5896 5897 5897 5898 5899 5900 5900 5901 5903 5905 5906 5907 5908 5908 5908 5908 5909 5909 5909 5910 5911 5912 5913 5914 5914 5915 5916 5917 5918 5919 5920 5921 5922 5923 5923 5923 5923 5924 5925 5925 5926 5926 5925 5925 5926 5926 5926 5926 5926 5926 5925 5924 5924 5925 5925 5925 5925 5924 5922 5921 5921 5921 5920 5919 5918 5917 5916 5915 5913 5913 5912 5912 5912 5913 5912 5912 5913 5914 5914 5914 5915 5915 5915 5916
5894 5894 5895 5896 5897 5898 5899 5900 5900 5901 5903 5905 5906 5907 5907 5907 5907 5907 5908 5909 5909 5910 5911 5912 5913 5914 5914 5915 5916 5917 5918 5919 5920 5921 5922 5923 5923 5923 5924 5924 5925 5926 5925 5924 5925 5926 5926 5926 5926 5926 5926 5925 5925 5924 5924 5924 5924 5924 5924 5923 5922 5922 5922 5921 5920 5919 5918 5917 5916 5915 5915 5914 5914 5914 5914 5914 5913 5913 5914 5914 5914 5915 5915 5915 5916
5891 5892 5893 5894 5895 5897 5898 5899 5899 5899 5900 5903 5904 5906 5907 5907 5906 5907 5908 5908 5909 5910 5911 5912 5913 5913 5914 5915 5916 5917 5918 5919 5920 5921 5921 5922 5923 5923 5924 5924 5925 5925 5924 5924 5925 5926 5926 5926 5926 5926 5926 5926 5925 5924 5924 5924 5924 5924 5923 5923 5923 5923 5923 5922 5922 5921 5920 5919 5918 5917 5917 5916 5915 5915 5915 5915 5915 5914 5914 5914 5914 5914 5915 5915 5915
5889 5890 5891 5893 5894 5895 5896 5898 5898 5898 5899 5900 5903 5904 5906 5906 5906 5907 5908 5909 5909 5910 5911 5912 5913 5913 5914 5915 5915 5916 5917 5918 5919 5920 5921 5922 5922 5923 5923 5923 5924 5924 5924 5924 5925 5926 5927 5926 5926 5926 5926 5926 5926 5925 5925 5924 5924 5924 5924 5923 5923 5923 5923 5923 5923 5922 5921 5921 5920 5920 5919 5918 5917 5916 5916 5916 5916 5915 5914 5914 5914 5914 5915 5915 5916
5888 5889 5890 5891 5892 5894 5895 5896 5897 5897 5898 5898 5900 5903 5905 5906 5907 5907 5908 5909 5910 5910 5911 5911 5912 5913 5913 5914 5915 5916 5917 5917 5918 5919 5920 5921 5922 5922 5923 5923 5923 5924 5924 5925 5925 5926 5927 5926 5926 5926 5926 5926 5925 5925 5925 5925 5925 5924 5924 5924 5924 5924 5924 5924 5923 5923 5922 5922 5921 5921 5920 5919 5918 5918 5917 5917 5916 5915 5915 5914 5914 5915 5915 5916 5917
5886 5887 5888 5889 5891 5892 5893 5894 5895 5896 5897 5897 5899 5901 5904 5905 5906 5907 5907 5908 5909 5909 5909 5909 5910 5911 5912 5913 5914 5915 5916 5917 5917 5918 5919 5920 5921 5922 5923 5923 5923 5923 5924 5925 5925 5926 5926 5926 5926 5926 5925 5925 5925 5925 5925 5925 5925 5924 5924 5924 5925 5925 5924 5924 5924 5923 5922 5922 5922 5921 5921 5920 5919 5919 5918 5918 5917 5916 5916 5915 5916 5916 5916 5917 5917
5885 5886 5887 5888 5889 5891 5892 5893 5894 5895 5896 5897 5898 5899 5902 5903 5904 5905 5906 5906 5907 5907 5908 5908 5909 5910 5912 5913 5914 5915 5916 5916 5917 5918 5919 5920 5921 5922 5922 5922 5923 5923 5924 5924 5924 5925 5925 5925 5925 5925 5925 5924 5924 5924 5924 5924 5924 5924 5924 5924 5925 5925 5925 5924 5923 5922 5922 5922 5922 5921 5921 5921 5920 5920 5920 5919 5918 5917 5917 5917 5917 5917 5917 5918 5918
5881 5883 5885 5886 5888 5890 5892 5892 5892 5894 5895 5896 5897 5898 5900 5902 5903 5903 5904 5905 5906 5906 5907 5908 5909 5910 5911 5913 5914 5914 5915 5916 5916 5917 5918 5919 5920 5921 5921 5922 5922 5923 5923 5924 5924 5924 5924 5924 5924 5924 5924 5923 5924 5924 5924 5924 5924 5924 5924 5925 5925 5925 5925 5924 5923 5922 5922 5922 5922 5922 5922 5921 5921 5921 5920 5920 5919 5919 5918 5918 5918 5918 5918 5918 5918
5879 5879 5881 5884 5886 5889 5890 5891 5891 5893 5894 5895 5896 5897 5898 5900 5901 5902 5903 5904 5905 5906 5907 5907 5908 5909 5910 5911 5912 5913 5914 5915 5916 5916 5917 5918 5919 5920 5921 5921 5922 5922 5922 5923 5923 5923 5923 5923 5924 5924 5923 5923 5923 5923 5923 5923 5923 5924 5924 5925 5925 5925 5925 5924 5923 5922 5922 5922 5922 5922 5922 5922 5922 5921 5921 5921 5920 5920 5920 5919 5919 5919 5918 5919 5919
5880 5879 5880 5883 5885 5887 5888 5890 5891 5892 5893 5894 5895 5896 5897 5899 5900 5901 5902 5903 5904 5905 5906 5906 5907 5908 5909 5910 5911 5912 5914 5914 5915 5916 5917 5918 5919 5919 5920 5921 5921 5921 5921 5921 5922 5922 5922 5922 5923 5923 5923 5922 5922 5922 5922 5923 5923 5923 5924 5924 5925 5925 5925 5924 5923 5923 5922 5922 5922 5922 5922 5922 5922 5921 5921 5921 5921 5921 5921 5920 5920 5920 5919 5919 5919
5880 5881 5881 5883 5885 5886 5887 5889 5890 5891 5892 5893 5895 5896 5897 5898 5899 5900 5901 5902 5903 5904 5904 5905 5906 5907 5908 5909 5910 5911 5913 5913 5914 5915 5916 5916 5917 5918 5919 5919 5920 5920 5920 5921 5921 5921 5921 5921 5921 5921 5921 5922 5922 5922 5922 5922 5922 5923 5923 5924 5924 5925 5925 5924 5924 5923 5923 5922 5922 5922 5922 5922 5922 5922 5921 5921 5921 5921 5922 5921 5921 5921 5921 5920 5920
5879 5879 5880 5881 5884 5885 5886 5888 5889 5890 5891 5893 5894 5895 5897 5898 5898 5899 5900 5901 5902 5902 5903 5904 5905 5906 5907 5908 5909 5910 5911 5912 5912 5913 5914 5915 5916 5917 5917 5918 5919 5919 5920 5920 5920 5920 5920 5920 5920 5920 5920 5921 5921 5921 5921 5922 5922 5923 5923 5923 5924 5924 5924 5924 5924 5923 5923 5922 5922 5922 5921 5922 5922 5922 5922 5921 5921 5921 5922 5922 5922 5922 5922 5921 5921